,,PA_Meas_PMT16A,,PR_Meas_QMR101_102,,RH_Meas_QMH101,,SR_Meas_QMS101,,TA_Meas_QMH101,,GenWind,,GenWind,
time,status,PA,status,PR,status,RH,status,SR,status,TA,status,DirAvg,status,SpdAvg,
2011-06-01, 00:00:04,VALID,917.5,VALID,0,VALID,96.9394,VALID,0,VALID,20.5804,VALID,83,VALID,0.504687,
2011-06-01, 00:01:04,VALID,917.473,VALID,0,VALID,96.9241,VALID,0,VALID,20.5999,VALID,83,VALID,0.615625,
2011-06-01, 00:02:04,VALID,917.483,VALID,0,VALID,96.9394,VALID,0,VALID,20.6194,VALID,83,VALID,0.550781,
2011-06-01, 00:03:04,VALID,917.43,VALID,0,VALID,96.9241,VALID,0,VALID,20.5999,VALID,83,VALID,0.54375,
2011-06-01, 00:04:04,VALID,917.466,VALID,0,VALID,96.9165,VALID,0,VALID,20.5999,VALID,83,VALID,0.440234,
2011-06-01, 00:05:04,VALID,917.432,VALID,0,VALID,96.9241,VALID,0,VALID,20.6194,VALID,83,VALID,0.425781,
2011-06-01, 00:06:04,VALID,917.455,VALID,0,VALID,96.8936,VALID,0,VALID,20.6194,VALID,83,VALID,0.135156,
2011-06-01, 00:07:04,VALID,917.468,VALID,0,VALID,96.8784,VALID,0,VALID,20.6179,VALID,83,VALID,0.400391,
2011-06-01, 00:08:04,VALID,917.504,VALID,0,VALID,96.8784,VALID,0,VALID,20.639,VALID,83,VALID,0,
2011-06-01, 00:09:04,VALID,917.521,VALID,0,VALID,96.886,VALID,0,VALID,20.639,VALID,83,VALID,0,
2011-06-01, 00:10:04,VALID,917.523,VALID,0,VALID,96.8555,VALID,0,VALID,20.6374,VALID,83,VALID,0,
2011-06-01, 00:11:04,VALID,917.56,VALID,0,VALID,96.8631,VALID,0,VALID,20.6959,VALID,83,VALID,0,
2011-06-01, 00:12:04,VALID,917.594,VALID,0,VALID,96.8479,VALID,0,VALID,20.7365,VALID,83,VALID,0.209375,
2011-06-01, 00:13:04,VALID,917.611,VALID,0,VALID,96.8326,VALID,0,VALID,20.717,VALID,83,VALID,0.446875,
2011-06-01, 00:14:04,VALID,917.608,VALID,0,VALID,96.8326,VALID,0,VALID,20.6748,VALID,83,VALID,0.416406,
2011-06-01, 00:15:04,VALID,917.604,VALID,0,VALID,96.7869,VALID,0,VALID,20.6975,VALID,83,VALID,0.367188,
2011-06-01, 00:16:04,VALID,917.613,VALID,0,VALID,96.764,VALID,0,VALID,20.7185,VALID,83,VALID,0.501562,
2011-06-01, 00:17:04,VALID,917.597,VALID,0,VALID,96.764,VALID,0,VALID,20.6764,VALID,83,VALID,0.0347656,
2011-06-01, 00:18:04,VALID,917.615,VALID,0,VALID,96.7488,VALID,0,VALID,20.717,VALID,83,VALID,0.591797,
2011-06-01, 00:19:04,VALID,917.585,VALID,0,VALID,96.7411,VALID,0,VALID,20.678,VALID,83,VALID,0.801562,
2011-06-01, 00:20:04,VALID,917.613,VALID,0,VALID,96.7259,VALID,0,VALID,20.6975,VALID,83,VALID,0.490625,
2011-06-01, 00:21:04,VALID,917.598,VALID,0,VALID,96.7335,VALID,0,VALID,20.717,VALID,83,VALID,0.20625,
2011-06-01, 00:22:04,VALID,917.614,VALID,0,VALID,96.7411,VALID,0,VALID,20.6959,VALID,83,VALID,0.241016,
2011-06-01, 00:23:04,VALID,917.638,VALID,0,VALID,96.7259,VALID,0,VALID,20.7154,VALID,83,VALID,0.378906,
2011-06-01, 00:24:04,VALID,917.634,VALID,0,VALID,96.703,VALID,0,VALID,20.717,VALID,84,VALID,0.432422,
2011-06-01, 00:25:04,VALID,917.618,VALID,0,VALID,96.6725,VALID,0,VALID,20.6959,VALID,84,VALID,0.564062,
2011-06-01, 00:26:04,VALID,917.595,VALID,0,VALID,96.6878,VALID,0,VALID,20.6959,VALID,83,VALID,0.0347656,
2011-06-01, 00:27:04,VALID,917.573,VALID,0,VALID,96.6725,VALID,0,VALID,20.6959,VALID,83,VALID,0.528906,
2011-06-01, 00:28:04,VALID,917.568,VALID,0,VALID,96.6649,VALID,0,VALID,20.6975,VALID,84,VALID,0.257422,
2011-06-01, 00:29:04,VALID,917.527,VALID,0,VALID,96.6344,VALID,0,VALID,20.6975,VALID,83,VALID,0.498047,
2011-06-01, 00:30:04,VALID,917.495,VALID,0,VALID,96.6497,VALID,0,VALID,20.717,VALID,83,VALID,0.356641,
2011-06-01, 00:31:04,VALID,917.49,VALID,0,VALID,96.6268,VALID,0,VALID,20.7365,VALID,83,VALID,0.280469,
2011-06-01, 00:32:04,VALID,917.491,VALID,0,VALID,96.6268,VALID,0,VALID,20.7365,VALID,83,VALID,0.0304688,
2011-06-01, 00:33:04,VALID,917.469,VALID,0,VALID,96.6192,VALID,0,VALID,20.756,VALID,83,VALID,0.289063,
2011-06-01, 00:34:04,VALID,917.457,VALID,0,VALID,96.5124,VALID,0,VALID,20.7365,VALID,83,VALID,0.530078,
2011-06-01, 00:35:04,VALID,917.438,VALID,0,VALID,96.4896,VALID,0,VALID,20.7154,VALID,83,VALID,0.926562,
2011-06-01, 00:36:04,VALID,917.432,VALID,0,VALID,96.3981,VALID,0,VALID,20.717,VALID,42,VALID,1.35898,
2011-06-01, 00:37:04,VALID,917.439,VALID,0,VALID,96.3981,VALID,0,VALID,20.6764,VALID,42,VALID,1.12812,
2011-06-01, 00:38:04,VALID,917.413,VALID,0,VALID,96.4743,VALID,0,VALID,20.717,VALID,42,VALID,0.846094,
2011-06-01, 00:39:04,VALID,917.392,VALID,0,VALID,96.3447,VALID,0,VALID,20.6975,VALID,43,VALID,1.0418,
2011-06-01, 00:40:04,VALID,917.394,VALID,0,VALID,96.3066,VALID,0,VALID,20.6795,VALID,43,VALID,0.988672,
2011-06-01, 00:41:04,VALID,917.377,VALID,0,VALID,96.3676,VALID,0,VALID,20.6374,VALID,43,VALID,0.851172,
2011-06-01, 00:42:04,VALID,917.37,VALID,0,VALID,96.36,VALID,0,VALID,20.6194,VALID,42,VALID,0.623828,
2011-06-01, 00:43:04,VALID,917.35,VALID,0,VALID,96.3981,VALID,0,VALID,20.6194,VALID,42,VALID,0.641797,
2011-06-01, 00:44:04,VALID,917.319,VALID,0,VALID,96.4515,VALID,0,VALID,20.5999,VALID,42,VALID,0.58125,
2011-06-01, 00:45:04,VALID,917.301,VALID,0,VALID,96.4591,VALID,0,VALID,20.5594,VALID,42,VALID,0.725391,
2011-06-01, 00:46:04,VALID,917.304,VALID,0,VALID,96.5658,VALID,0,VALID,20.5594,VALID,42,VALID,0.483594,
2011-06-01, 00:47:04,VALID,917.263,VALID,0,VALID,96.5277,VALID,0,VALID,20.5804,VALID,43,VALID,0.725,
2011-06-01, 00:48:04,VALID,917.26,VALID,0,VALID,96.5277,VALID,0,VALID,20.5609,VALID,42,VALID,0.65625,
2011-06-01, 00:49:04,VALID,917.232,VALID,0,VALID,96.5201,VALID,0,VALID,20.5204,VALID,42,VALID,0.599609,
2011-06-01, 00:50:04,VALID,917.186,VALID,0,VALID,96.5506,VALID,0,VALID,20.5219,VALID,42,VALID,0.746875,
2011-06-01, 00:51:04,VALID,917.165,VALID,0,VALID,96.5887,VALID,0,VALID,20.5009,VALID,42,VALID,0.416016,
2011-06-01, 00:52:04,VALID,917.119,VALID,0,VALID,96.5887,VALID,0,VALID,20.4813,VALID,42,VALID,0.628125,
2011-06-01, 00:53:04,VALID,917.098,VALID,0,VALID,96.5963,VALID,0,VALID,20.5009,VALID,42,VALID,0.279687,
2011-06-01, 00:54:04,VALID,917.056,VALID,0,VALID,96.6192,VALID,0,VALID,20.5024,VALID,42,VALID,0.322266,
2011-06-01, 00:55:04,VALID,917.026,VALID,0,VALID,96.5811,VALID,0,VALID,20.4813,VALID,42,VALID,0.377344,
2011-06-01, 00:56:04,VALID,916.976,VALID,0,VALID,96.5658,VALID,0,VALID,20.4618,VALID,42,VALID,0.76875,
2011-06-01, 00:57:04,VALID,916.92,VALID,0,VALID,96.4743,VALID,0,VALID,20.4634,VALID,66,VALID,0.957031,
2011-06-01, 00:58:04,VALID,916.891,VALID,0,VALID,96.3524,VALID,0,VALID,20.4829,VALID,66,VALID,0.858203,
2011-06-01, 00:59:04,VALID,916.87,VALID,0,VALID,96.299,VALID,0,VALID,20.5219,VALID,67,VALID,0.696094,
2011-06-01, 01:00:04,VALID,916.855,VALID,0,VALID,96.2075,VALID,0,VALID,20.4993,VALID,66,VALID,0.850781,
2011-06-01, 01:01:04,VALID,916.822,VALID,0,VALID,96.0779,VALID,0,VALID,20.5219,VALID,67,VALID,0.876562,
2011-06-01, 01:02:04,VALID,916.817,VALID,0,VALID,95.9178,VALID,0,VALID,20.5399,VALID,67,VALID,0.6875,
2011-06-01, 01:03:04,VALID,916.819,VALID,0,VALID,95.773,VALID,0,VALID,20.5594,VALID,67,VALID,0.537891,
2011-06-01, 01:04:04,VALID,916.809,VALID,0,VALID,95.6357,VALID,0,VALID,20.5789,VALID,66,VALID,0.507422,
2011-06-01, 01:05:04,VALID,916.816,VALID,0,VALID,95.4985,VALID,0,VALID,20.5789,VALID,67,VALID,0.44375,
2011-06-01, 01:06:04,VALID,916.795,VALID,0,VALID,95.3918,VALID,0,VALID,20.5399,VALID,138,VALID,0.788281,
2011-06-01, 01:07:04,VALID,916.784,VALID,0,VALID,95.3613,VALID,0,VALID,20.4798,VALID,138,VALID,0.686328,
2011-06-01, 01:08:04,VALID,916.777,VALID,0,VALID,95.4071,VALID,0,VALID,20.4618,VALID,138,VALID,0.889063,
2011-06-01, 01:09:04,VALID,916.794,VALID,0,VALID,95.4452,VALID,0,VALID,20.4033,VALID,138,VALID,1.05156,
2011-06-01, 01:10:04,VALID,916.779,VALID,0,VALID,95.529,VALID,0,VALID,20.3448,VALID,138,VALID,1.29453,
2011-06-01, 01:11:04,VALID,916.804,VALID,0,VALID,95.6662,VALID,0,VALID,20.3253,VALID,139,VALID,1.02539,
2011-06-01, 01:12:04,VALID,916.81,VALID,0,VALID,95.7577,VALID,0,VALID,20.2668,VALID,139,VALID,1.04023,
2011-06-01, 01:13:04,VALID,916.78,VALID,0,VALID,95.8568,VALID,0,VALID,20.2684,VALID,139,VALID,0.670313,
2011-06-01, 01:14:04,VALID,916.768,VALID,0,VALID,95.9483,VALID,0,VALID,20.2293,VALID,139,VALID,0.494531,
2011-06-01, 01:15:04,VALID,916.772,VALID,0,VALID,96.0932,VALID,0.107441,VALID,20.2083,VALID,139,VALID,1.07383,
2011-06-01, 01:16:04,VALID,916.761,VALID,0,VALID,96.1465,VALID,0.107441,VALID,20.1678,VALID,138,VALID,0.372266,
2011-06-01, 01:17:04,VALID,916.74,VALID,0,VALID,96.2151,VALID,0,VALID,20.1693,VALID,138,VALID,0.733594,
2011-06-01, 01:18:04,VALID,916.733,VALID,0,VALID,96.2761,VALID,0.107441,VALID,20.1498,VALID,138,VALID,0.917578,
2011-06-01, 01:19:04,VALID,916.708,VALID,0,VALID,96.36,VALID,0.107441,VALID,20.1288,VALID,126,VALID,1.21641,
2011-06-01, 01:20:04,VALID,916.63,VALID,0,VALID,96.4438,VALID,0.107441,VALID,20.1093,VALID,110,VALID,1.27734,
2011-06-01, 01:21:04,VALID,916.583,VALID,0,VALID,96.5048,VALID,0.107441,VALID,20.1303,VALID,124,VALID,1.60156,
2011-06-01, 01:22:04,VALID,916.562,VALID,0,VALID,96.5429,VALID,0.107441,VALID,20.1303,VALID,119,VALID,1.14453,
2011-06-01, 01:23:04,VALID,916.529,VALID,0,VALID,96.5734,VALID,0.107441,VALID,20.1303,VALID,119,VALID,1.17539,
2011-06-01, 01:24:04,VALID,916.476,VALID,0,VALID,96.5887,VALID,0,VALID,20.1093,VALID,119,VALID,1.22344,
2011-06-01, 01:25:04,VALID,916.468,VALID,0,VALID,96.6573,VALID,0.107441,VALID,20.1498,VALID,119,VALID,1.30117,
2011-06-01, 01:26:04,VALID,916.445,VALID,0,VALID,96.6725,VALID,0.107441,VALID,20.1303,VALID,119,VALID,1.11914,
2011-06-01, 01:27:04,VALID,916.382,VALID,0,VALID,96.6497,VALID,0.107441,VALID,20.1288,VALID,121,VALID,1.12148,
2011-06-01, 01:28:04,VALID,916.378,VALID,0,VALID,96.6802,VALID,0.107441,VALID,20.1303,VALID,122,VALID,1.27031,
2011-06-01, 01:29:04,VALID,916.313,VALID,0,VALID,96.6725,VALID,0.107441,VALID,20.1288,VALID,129,VALID,1.32852,
2011-06-01, 01:30:04,VALID,916.284,VALID,0,VALID,96.7183,VALID,0,VALID,20.1318,VALID,131,VALID,1.43906,
2011-06-01, 01:31:04,VALID,916.257,VALID,0,VALID,96.7183,VALID,0,VALID,20.1108,VALID,126,VALID,0.975391,
2011-06-01, 01:32:04,VALID,916.263,VALID,0,VALID,96.7411,VALID,0,VALID,20.1303,VALID,118,VALID,1.20547,
2011-06-01, 01:33:04,VALID,916.188,VALID,0,VALID,96.7564,VALID,0,VALID,20.1303,VALID,122,VALID,2.04648,
2011-06-01, 01:34:04,VALID,916.172,VALID,0,VALID,96.7411,VALID,0,VALID,20.1303,VALID,124,VALID,2.28594,
2011-06-01, 01:35:04,VALID,916.169,VALID,0,VALID,96.7945,VALID,0,VALID,20.1303,VALID,129,VALID,1.46133,
2011-06-01, 01:36:04,VALID,916.152,VALID,0,VALID,96.8021,VALID,0,VALID,20.1513,VALID,113,VALID,0.779297,
2011-06-01, 01:37:04,VALID,916.131,VALID,0,VALID,96.825,VALID,0,VALID,20.1513,VALID,123,VALID,0.698828,
2011-06-01, 01:38:04,VALID,916.146,VALID,0,VALID,96.8479,VALID,0,VALID,20.1498,VALID,165,VALID,1.04297,
2011-06-01, 01:39:04,VALID,916.165,VALID,0,VALID,96.8555,VALID,0,VALID,20.1708,VALID,126,VALID,0.495703,
2011-06-01, 01:40:04,VALID,916.173,VALID,0,VALID,96.8631,VALID,0,VALID,20.1693,VALID,172,VALID,0.932031,
2011-06-01, 01:41:04,VALID,916.19,VALID,0,VALID,96.8936,VALID,0,VALID,20.1498,VALID,161,VALID,0.855078,
2011-06-01, 01:42:04,VALID,916.171,VALID,0,VALID,96.9012,VALID,0,VALID,20.1708,VALID,168,VALID,1.06758,
2011-06-01, 01:43:04,VALID,916.14,VALID,0,VALID,96.9089,VALID,0,VALID,20.1303,VALID,178,VALID,1.00898,
2011-06-01, 01:44:04,VALID,916.114,VALID,0,VALID,96.9089,VALID,0,VALID,20.1513,VALID,169,VALID,1.09453,
2011-06-01, 01:45:04,VALID,916.048,VALID,0,VALID,96.9317,VALID,0,VALID,20.1513,VALID,148,VALID,0.91875,
2011-06-01, 01:46:04,VALID,916.011,VALID,0,VALID,96.9394,VALID,0,VALID,20.1108,VALID,160,VALID,1.21094,
2011-06-01, 01:47:04,VALID,915.995,VALID,0,VALID,96.9546,VALID,0,VALID,20.1303,VALID,145,VALID,0.655469,
2011-06-01, 01:48:04,VALID,915.958,VALID,0,VALID,96.9775,VALID,0,VALID,20.1108,VALID,144,VALID,0.748438,
2011-06-01, 01:49:04,VALID,915.956,VALID,0,VALID,96.9698,VALID,0,VALID,20.0913,VALID,125,VALID,0.787891,
2011-06-01, 01:50:04,VALID,915.984,VALID,0,VALID,96.9698,VALID,0,VALID,20.0733,VALID,138,VALID,0.466016,
2011-06-01, 01:51:04,VALID,915.965,VALID,0,VALID,97.0003,VALID,0,VALID,20.0718,VALID,138,VALID,0.606641,
2011-06-01, 01:52:04,VALID,916,VALID,0,VALID,96.9851,VALID,0,VALID,20.0928,VALID,138,VALID,0.405078,
2011-06-01, 01:53:04,VALID,916.002,VALID,0,VALID,97.0003,VALID,0,VALID,20.0913,VALID,138,VALID,0.422656,
2011-06-01, 01:54:04,VALID,915.986,VALID,0,VALID,97.008,VALID,0,VALID,20.0718,VALID,138,VALID,0.161719,
2011-06-01, 01:55:04,VALID,916.007,VALID,0,VALID,97.008,VALID,0,VALID,20.0913,VALID,138,VALID,0.363672,
2011-06-01, 01:56:04,VALID,916.027,VALID,0,VALID,97.008,VALID,0,VALID,20.0928,VALID,138,VALID,0.495313,
2011-06-01, 01:57:04,VALID,916.018,VALID,0,VALID,97.0156,VALID,0,VALID,20.0928,VALID,139,VALID,0.578125,
2011-06-01, 01:58:04,VALID,916.027,VALID,0,VALID,97.0308,VALID,0,VALID,20.0928,VALID,151,VALID,0.614062,
2011-06-01, 01:59:04,VALID,916.046,VALID,0,VALID,97.0232,VALID,0,VALID,20.0523,VALID,151,VALID,0.774609,
2011-06-01, 02:00:04,VALID,916.045,VALID,0,VALID,97.0537,VALID,0,VALID,20.0523,VALID,152,VALID,1.06406,
2011-06-01, 02:01:04,VALID,916.063,VALID,0,VALID,97.0461,VALID,0,VALID,20.0523,VALID,176,VALID,1.25625,
2011-06-01, 02:02:04,VALID,916.054,VALID,0,VALID,97.0461,VALID,0,VALID,20.0733,VALID,202,VALID,1.01719,
2011-06-01, 02:03:04,VALID,916.051,VALID,0,VALID,97.0537,VALID,0,VALID,20.0523,VALID,202,VALID,0.588281,
2011-06-01, 02:04:04,VALID,916.079,VALID,0,VALID,97.0461,VALID,0,VALID,20.0523,VALID,202,VALID,0.877734,
2011-06-01, 02:05:04,VALID,916.052,VALID,0,VALID,97.0537,VALID,0,VALID,20.0928,VALID,188,VALID,1.42891,
2011-06-01, 02:06:04,VALID,916.082,VALID,0,VALID,97.0613,VALID,0,VALID,20.0913,VALID,188,VALID,0.782031,
2011-06-01, 02:07:04,VALID,916.072,VALID,0,VALID,97.0537,VALID,0,VALID,20.0913,VALID,188,VALID,0.869531,
2011-06-01, 02:08:04,VALID,916.058,VALID,0,VALID,97.0537,VALID,0,VALID,20.1123,VALID,188,VALID,0.996875,
2011-06-01, 02:09:04,VALID,916.012,VALID,0,VALID,97.0766,VALID,0,VALID,20.1108,VALID,188,VALID,1.00937,
2011-06-01, 02:10:04,VALID,915.986,VALID,0,VALID,97.0537,VALID,0,VALID,20.0913,VALID,189,VALID,0.979297,
2011-06-01, 02:11:04,VALID,916.002,VALID,0,VALID,97.069,VALID,0,VALID,20.0913,VALID,189,VALID,1.02227,
2011-06-01, 02:12:04,VALID,915.989,VALID,0,VALID,97.0461,VALID,0,VALID,20.0928,VALID,189,VALID,1.33711,
2011-06-01, 02:13:04,VALID,915.969,VALID,0,VALID,97.0613,VALID,0,VALID,20.0718,VALID,189,VALID,1.14766,
2011-06-01, 02:14:04,VALID,915.976,VALID,0,VALID,97.0537,VALID,0,VALID,20.0928,VALID,189,VALID,0.597266,
2011-06-01, 02:15:04,VALID,915.959,VALID,0,VALID,97.0842,VALID,0,VALID,20.0928,VALID,188,VALID,0.776172,
2011-06-01, 02:16:04,VALID,915.932,VALID,0,VALID,97.0385,VALID,0,VALID,20.0928,VALID,189,VALID,0.721094,
2011-06-01, 02:17:04,VALID,915.959,VALID,0,VALID,97.0766,VALID,0,VALID,20.0928,VALID,188,VALID,0.546875,
2011-06-01, 02:18:04,VALID,915.963,VALID,0,VALID,97.0766,VALID,0,VALID,20.0718,VALID,189,VALID,0.764063,
2011-06-01, 02:19:04,VALID,915.974,VALID,0,VALID,97.0766,VALID,0,VALID,20.0508,VALID,189,VALID,0.766406,
2011-06-01, 02:20:04,VALID,915.962,VALID,0,VALID,97.0613,VALID,0,VALID,20.0733,VALID,189,VALID,0.849609,
2011-06-01, 02:21:04,VALID,915.957,VALID,0,VALID,97.0842,VALID,0,VALID,20.0523,VALID,189,VALID,0.696875,
2011-06-01, 02:22:04,VALID,916.01,VALID,0,VALID,97.0918,VALID,0,VALID,20.0118,VALID,189,VALID,0.869141,
2011-06-01, 02:23:04,VALID,915.978,VALID,0,VALID,97.0842,VALID,0,VALID,20.0944,VALID,189,VALID,0.660156,
2011-06-01, 02:24:04,VALID,915.971,VALID,0,VALID,97.1147,VALID,0,VALID,20.0328,VALID,188,VALID,0.878516,
2011-06-01, 02:25:04,VALID,915.971,VALID,0,VALID,97.0918,VALID,0,VALID,20.0733,VALID,185,VALID,0.873828,
2011-06-01, 02:26:04,VALID,915.986,VALID,0,VALID,97.1071,VALID,0,VALID,20.0733,VALID,176,VALID,0.571875,
2011-06-01, 02:27:04,VALID,915.981,VALID,0,VALID,97.1071,VALID,0,VALID,20.0523,VALID,175,VALID,0.592578,
2011-06-01, 02:28:04,VALID,915.964,VALID,0,VALID,97.0918,VALID,0,VALID,20.0538,VALID,175,VALID,0.581641,
2011-06-01, 02:29:04,VALID,915.946,VALID,0,VALID,97.0842,VALID,0,VALID,20.0343,VALID,175,VALID,0.493359,
2011-06-01, 02:30:04,VALID,915.953,VALID,0,VALID,97.0918,VALID,0,VALID,19.9953,VALID,176,VALID,0.569922,
2011-06-01, 02:31:04,VALID,915.906,VALID,0,VALID,97.0766,VALID,0,VALID,19.9953,VALID,175,VALID,0.793359,
2011-06-01, 02:32:04,VALID,915.88,VALID,0,VALID,97.069,VALID,0,VALID,19.9953,VALID,174,VALID,0.753125,
2011-06-01, 02:33:04,VALID,915.898,VALID,0,VALID,97.0918,VALID,0,VALID,19.9953,VALID,169,VALID,0.805078,
2011-06-01, 02:34:04,VALID,915.893,VALID,0,VALID,97.0842,VALID,0,VALID,19.9743,VALID,132,VALID,0.546484,
2011-06-01, 02:35:04,VALID,915.885,VALID,0,VALID,97.069,VALID,0,VALID,19.9743,VALID,131,VALID,0.715625,
2011-06-01, 02:36:04,VALID,915.863,VALID,0,VALID,97.0766,VALID,0,VALID,19.9953,VALID,132,VALID,0.790234,
2011-06-01, 02:37:04,VALID,915.875,VALID,0,VALID,97.0994,VALID,0,VALID,19.9953,VALID,131,VALID,0.766797,
2011-06-01, 02:38:04,VALID,915.825,VALID,0,VALID,97.0842,VALID,0,VALID,19.9953,VALID,131,VALID,0.562891,
2011-06-01, 02:39:04,VALID,915.823,VALID,0,VALID,97.0842,VALID,0,VALID,19.9953,VALID,132,VALID,1.19258,
2011-06-01, 02:40:04,VALID,915.82,VALID,0,VALID,97.0613,VALID,0,VALID,19.9758,VALID,132,VALID,0.641016,
2011-06-01, 02:41:04,VALID,915.79,VALID,0,VALID,97.0766,VALID,0,VALID,20.0163,VALID,132,VALID,0.951953,
2011-06-01, 02:42:04,VALID,915.792,VALID,0,VALID,97.0842,VALID,0,VALID,19.9758,VALID,132,VALID,0.467578,
2011-06-01, 02:43:04,VALID,915.771,VALID,0,VALID,97.1071,VALID,0,VALID,19.9563,VALID,132,VALID,0.473828,
2011-06-01, 02:44:04,VALID,915.778,VALID,0,VALID,97.0918,VALID,0,VALID,19.9338,VALID,131,VALID,0.353906,
2011-06-01, 02:45:04,VALID,915.76,VALID,0,VALID,97.0766,VALID,0,VALID,19.9578,VALID,132,VALID,0.360547,
2011-06-01, 02:46:04,VALID,915.76,VALID,0,VALID,97.0613,VALID,0,VALID,19.9398,VALID,132,VALID,0.341406,
2011-06-01, 02:47:04,VALID,915.779,VALID,0,VALID,97.069,VALID,0,VALID,19.8978,VALID,132,VALID,0.426172,
2011-06-01, 02:48:04,VALID,915.732,VALID,0,VALID,97.0613,VALID,0,VALID,19.8993,VALID,132,VALID,0.553906,
2011-06-01, 02:49:04,VALID,915.714,VALID,0,VALID,97.069,VALID,0,VALID,19.8993,VALID,132,VALID,0.812109,
2011-06-01, 02:50:04,VALID,915.736,VALID,0,VALID,97.0537,VALID,0,VALID,19.8588,VALID,131,VALID,0.535547,
2011-06-01, 02:51:04,VALID,915.727,VALID,0,VALID,97.0537,VALID,0,VALID,19.8003,VALID,132,VALID,0.663672,
2011-06-01, 02:52:04,VALID,915.754,VALID,0,VALID,97.0308,VALID,0,VALID,19.7808,VALID,132,VALID,0.711719,
2011-06-01, 02:53:04,VALID,915.773,VALID,0,VALID,97.0766,VALID,0,VALID,19.7193,VALID,131,VALID,0.740625,
2011-06-01, 02:54:04,VALID,915.775,VALID,0,VALID,97.0461,VALID,0,VALID,19.7193,VALID,132,VALID,0.878906,
2011-06-01, 02:55:04,VALID,915.784,VALID,0,VALID,97.069,VALID,0,VALID,19.7823,VALID,132,VALID,0.7625,
2011-06-01, 02:56:04,VALID,915.778,VALID,0,VALID,97.069,VALID,0,VALID,19.7223,VALID,131,VALID,0.614453,
2011-06-01, 02:57:04,VALID,915.785,VALID,0,VALID,97.0613,VALID,0,VALID,19.7028,VALID,132,VALID,0.523047,
2011-06-01, 02:58:04,VALID,915.779,VALID,0,VALID,97.0766,VALID,0,VALID,19.6608,VALID,132,VALID,0.472266,
2011-06-01, 02:59:04,VALID,915.755,VALID,0,VALID,97.0766,VALID,0,VALID,19.6623,VALID,132,VALID,0.423438,
2011-06-01, 03:00:04,VALID,915.767,VALID,0,VALID,97.0842,VALID,0,VALID,19.6623,VALID,132,VALID,0.354297,
2011-06-01, 03:01:04,VALID,915.752,VALID,0,VALID,97.0842,VALID,0,VALID,19.6638,VALID,132,VALID,0.667969,
2011-06-01, 03:02:04,VALID,915.763,VALID,0,VALID,97.069,VALID,0,VALID,19.6863,VALID,132,VALID,0.596875,
2011-06-01, 03:03:04,VALID,915.78,VALID,0,VALID,97.0918,VALID,0,VALID,19.5828,VALID,132,VALID,0.655859,
2011-06-01, 03:04:04,VALID,915.767,VALID,0,VALID,97.0842,VALID,0,VALID,19.5633,VALID,131,VALID,0.528906,
2011-06-01, 03:05:04,VALID,915.769,VALID,0,VALID,97.0766,VALID,0,VALID,19.5438,VALID,132,VALID,0.525391,
2011-06-01, 03:06:04,VALID,915.761,VALID,0,VALID,97.0918,VALID,0,VALID,19.5663,VALID,132,VALID,0.504687,
2011-06-01, 03:07:04,VALID,915.773,VALID,0,VALID,97.0842,VALID,0,VALID,19.5873,VALID,132,VALID,0.489844,
2011-06-01, 03:08:04,VALID,915.757,VALID,0,VALID,97.1147,VALID,0,VALID,19.5048,VALID,132,VALID,0.564844,
2011-06-01, 03:09:04,VALID,915.784,VALID,0,VALID,97.0994,VALID,0,VALID,19.5063,VALID,132,VALID,0.544922,
2011-06-01, 03:10:04,VALID,915.767,VALID,0,VALID,97.1147,VALID,0,VALID,19.5678,VALID,132,VALID,0.219141,
2011-06-01, 03:11:04,VALID,915.75,VALID,0,VALID,97.1452,VALID,0,VALID,19.5888,VALID,132,VALID,0,
2011-06-01, 03:12:04,VALID,915.782,VALID,0,VALID,97.1223,VALID,0,VALID,19.5258,VALID,132,VALID,0,
2011-06-01, 03:13:04,VALID,915.791,VALID,0,VALID,97.1604,VALID,0,VALID,19.5243,VALID,132,VALID,0,
2011-06-01, 03:14:04,VALID,915.785,VALID,0,VALID,97.1604,VALID,0,VALID,19.5858,VALID,132,VALID,0,
2011-06-01, 03:15:04,VALID,915.75,VALID,0,VALID,97.1604,VALID,0,VALID,19.5468,VALID,132,VALID,0.00117188,
2011-06-01, 03:16:04,VALID,915.763,VALID,0,VALID,97.1376,VALID,0,VALID,19.5468,VALID,132,VALID,0,
2011-06-01, 03:17:04,VALID,915.751,VALID,0,VALID,97.1681,VALID,0,VALID,19.5468,VALID,132,VALID,0.4625,
2011-06-01, 03:18:04,VALID,915.76,VALID,0,VALID,97.1452,VALID,0,VALID,19.5078,VALID,132,VALID,0.554297,
2011-06-01, 03:19:04,VALID,915.757,VALID,0,VALID,97.1604,VALID,0,VALID,19.5273,VALID,132,VALID,0.580078,
2011-06-01, 03:20:04,VALID,915.752,VALID,0,VALID,97.1833,VALID,0,VALID,19.6068,VALID,132,VALID,0.563281,
2011-06-01, 03:21:04,VALID,915.774,VALID,0,VALID,97.1833,VALID,0,VALID,19.6638,VALID,132,VALID,0.413281,
2011-06-01, 03:22:04,VALID,915.773,VALID,0,VALID,97.2062,VALID,0,VALID,19.7613,VALID,132,VALID,0.519531,
2011-06-01, 03:23:04,VALID,915.774,VALID,0,VALID,97.229,VALID,0,VALID,19.7613,VALID,132,VALID,0.396875,
2011-06-01, 03:24:04,VALID,915.758,VALID,0,VALID,97.2138,VALID,0,VALID,19.7433,VALID,132,VALID,0.608203,
2011-06-01, 03:25:04,VALID,915.764,VALID,0,VALID,97.1986,VALID,0,VALID,19.7028,VALID,132,VALID,0.777734,
2011-06-01, 03:26:04,VALID,915.762,VALID,0,VALID,97.1833,VALID,0,VALID,19.7613,VALID,132,VALID,0.944922,
2011-06-01, 03:27:04,VALID,915.716,VALID,0,VALID,97.1757,VALID,0,VALID,19.7628,VALID,132,VALID,1.03555,
2011-06-01, 03:28:04,VALID,915.73,VALID,0,VALID,97.1909,VALID,0,VALID,19.7223,VALID,132,VALID,0.995313,
2011-06-01, 03:29:04,VALID,915.732,VALID,0,VALID,97.1986,VALID,0,VALID,19.7223,VALID,132,VALID,0.791406,
2011-06-01, 03:30:04,VALID,915.719,VALID,0,VALID,97.1604,VALID,0,VALID,19.6833,VALID,132,VALID,0.869141,
2011-06-01, 03:31:04,VALID,915.721,VALID,0,VALID,97.1452,VALID,0,VALID,19.7238,VALID,132,VALID,0.9875,
2011-06-01, 03:32:04,VALID,915.712,VALID,0,VALID,97.1452,VALID,0,VALID,19.7223,VALID,132,VALID,0.846484,
2011-06-01, 03:33:04,VALID,915.699,VALID,0,VALID,97.1452,VALID,0,VALID,19.7238,VALID,132,VALID,0.971875,
2011-06-01, 03:34:04,VALID,915.697,VALID,0,VALID,97.1452,VALID,0,VALID,19.7238,VALID,132,VALID,1.03125,
2011-06-01, 03:35:04,VALID,915.657,VALID,0,VALID,97.1452,VALID,0,VALID,19.6833,VALID,132,VALID,0.925,
2011-06-01, 03:36:04,VALID,915.64,VALID,0,VALID,97.1452,VALID,0,VALID,19.7043,VALID,132,VALID,0.950781,
2011-06-01, 03:37:04,VALID,915.605,VALID,0,VALID,97.1376,VALID,0,VALID,19.6638,VALID,132,VALID,0.766406,
2011-06-01, 03:38:04,VALID,915.576,VALID,0,VALID,97.1223,VALID,0,VALID,19.6248,VALID,132,VALID,0.802734,
2011-06-01, 03:39:04,VALID,915.554,VALID,0,VALID,97.0918,VALID,0,VALID,19.6053,VALID,132,VALID,0.992188,
2011-06-01, 03:40:04,VALID,915.542,VALID,0,VALID,97.1071,VALID,0,VALID,19.6053,VALID,132,VALID,0.962109,
2011-06-01, 03:41:04,VALID,915.512,VALID,0,VALID,97.0918,VALID,0,VALID,19.6053,VALID,132,VALID,0.831641,
2011-06-01, 03:42:04,VALID,915.468,VALID,0,VALID,97.0842,VALID,0,VALID,19.6248,VALID,132,VALID,1.09805,
2011-06-01, 03:43:04,VALID,915.457,VALID,0,VALID,97.0613,VALID,0,VALID,19.6248,VALID,135,VALID,1.05898,
2011-06-01, 03:44:04,VALID,915.441,VALID,0,VALID,97.0766,VALID,0,VALID,19.6053,VALID,142,VALID,0.798828,
2011-06-01, 03:45:04,VALID,915.431,VALID,0,VALID,97.0308,VALID,0,VALID,19.5858,VALID,151,VALID,0.942578,